XNO592X EGGD-LPFR

Flight info

Callsign XNO592X
Flight time 2h 11m
Altitude 34000
Route EXMOR N92 DAWLY DCT BHD DCT SALCO DCT IBISU/N0453F350 DCT BALDA DCT ABUPI DCT ORVED DCT UPULO DCT ALAGU
Aircraft A320/M-SDE3FGHIRWY/LB1

Departure

Time 2026-05-06 09:04
Airport Bristol Airport (EGGD)

Arrival

Time 2026-05-06 11:15
Airport Faro - Gago Coutinho International Airport (LPFR)
Time Latitude Longitude Altitude Speed Heading
2026-05-06 08:28 51.38553 -2.71018 611 ft 0 kts 356°
2026-05-06 08:50 51.38555 -2.71018 626 ft 2 kts 356°
2026-05-06 08:50 51.38554 -2.71018 611 ft 2 kts 356°
2026-05-06 08:50 51.38538 -2.71016 630 ft 2 kts 356°
2026-05-06 08:51 51.38522 -2.71014 626 ft 2 kts 356°
2026-05-06 08:51 51.38506 -2.71012 627 ft 2 kts 356°
2026-05-06 08:51 51.38490 -2.71010 625 ft 2 kts 356°
2026-05-06 08:51 51.38475 -2.71004 626 ft 2 kts 297°
2026-05-06 08:52 51.38471 -2.70992 626 ft 0 kts 270°
2026-05-06 08:55 51.38471 -2.71004 615 ft 3 kts 270°
2026-05-06 08:55 51.38468 -2.71056 616 ft 6 kts 257°
2026-05-06 08:55 51.38456 -2.71145 617 ft 10 kts 262°
2026-05-06 08:55 51.38450 -2.71266 618 ft 12 kts 266°
2026-05-06 08:56 51.38443 -2.71488 620 ft 30 kts 267°
2026-05-06 08:56 51.38428 -2.71837 613 ft 30 kts 268°
2026-05-06 08:56 51.38424 -2.72171 618 ft 29 kts 266°
2026-05-06 08:56 51.38412 -2.72485 615 ft 27 kts 266°
2026-05-06 08:57 51.38400 -2.72791 615 ft 28 kts 266°
2026-05-06 08:57 51.38392 -2.73035 615 ft 11 kts 266°
2026-05-06 08:57 51.38387 -2.73146 615 ft 6 kts 266°
2026-05-06 08:57 51.38387 -2.73148 615 ft 0 kts 266°
2026-05-06 09:02 51.38386 -2.73149 615 ft 1 kts 266°
2026-05-06 09:02 51.38383 -2.73215 615 ft 11 kts 263°
2026-05-06 09:02 51.38318 -2.73337 622 ft 18 kts 196°
2026-05-06 09:03 51.38241 -2.73328 624 ft 7 kts 163°
2026-05-06 09:03 51.38216 -2.73261 628 ft 10 kts 92°
2026-05-06 09:03 51.38217 -2.73204 627 ft 0 kts 87°
2026-05-06 09:03 51.38221 -2.73085 627 ft 40 kts 86°
2026-05-06 09:04 51.38255 -2.72219 629 ft 113 kts 86°
2026-05-06 09:04 51.38312 -2.70638 643 ft 166 kts 85°
2026-05-06 09:04 51.38320 -2.68699 1286 ft 176 kts 86°
2026-05-06 09:04 51.38374 -2.66771 2342 ft 172 kts 85°
2026-05-06 09:05 51.38443 -2.64845 2960 ft 178 kts 84°
2026-05-06 09:05 51.38523 -2.62740 3170 ft 200 kts 84°
2026-05-06 09:05 51.38611 -2.60412 3464 ft 221 kts 86°
2026-05-06 09:05 51.38700 -2.57831 3811 ft 244 kts 88°
2026-05-06 09:06 51.38371 -2.55094 4413 ft 259 kts 112°
2026-05-06 09:06 51.37721 -2.53468 4911 ft 266 kts 131°
2026-05-06 09:06 51.36191 -2.51770 5681 ft 273 kts 160°
2026-05-06 09:06 51.34313 -2.51394 6501 ft 275 kts 189°
2026-05-06 09:07 51.32533 -2.52452 7262 ft 276 kts 217°
2026-05-06 09:07 51.31258 -2.54714 7997 ft 277 kts 244°
2026-05-06 09:07 51.30770 -2.57672 8749 ft 279 kts 267°
2026-05-06 09:07 51.30651 -2.60776 9564 ft 281 kts 269°
2026-05-06 09:08 51.30545 -2.63917 10242 ft 289 kts 268°
2026-05-06 09:08 51.30213 -2.67225 10452 ft 314 kts 262°
2026-05-06 09:08 51.29810 -2.70782 10601 ft 337 kts 261°
2026-05-06 09:08 51.29386 -2.74584 10777 ft 357 kts 261°
2026-05-06 09:09 51.28963 -2.78542 11276 ft 365 kts 264°
2026-05-06 09:09 51.28773 -2.82599 11909 ft 368 kts 269°
2026-05-06 09:09 51.28791 -2.86701 12556 ft 371 kts 274°
2026-05-06 09:09 51.28919 -2.90833 13198 ft 374 kts 274°
2026-05-06 09:10 51.29079 -2.95006 13806 ft 378 kts 275°
2026-05-06 09:10 51.29209 -2.99225 14359 ft 382 kts 270°
2026-05-06 09:10 51.28803 -3.03432 14894 ft 387 kts 254°
2026-05-06 09:10 51.27770 -3.07413 15491 ft 390 kts 244°
2026-05-06 09:11 51.26416 -3.11175 16105 ft 390 kts 239°
2026-05-06 09:11 51.24965 -3.14833 16780 ft 389 kts 238°
2026-05-06 09:11 51.23540 -3.18493 17469 ft 388 kts 240°
2026-05-06 09:11 51.22191 -3.22204 18171 ft 385 kts 242°
2026-05-06 09:12 51.20922 -3.25952 18814 ft 383 kts 242°
2026-05-06 09:12 51.19456 -3.29488 19443 ft 382 kts 232°
2026-05-06 09:12 51.17609 -3.32559 19874 ft 389 kts 222°
2026-05-06 09:12 51.15329 -3.35014 20006 ft 404 kts 208°
2026-05-06 09:13 51.12675 -3.36645 20031 ft 414 kts 197°
2026-05-06 09:13 51.09826 -3.37383 20018 ft 417 kts 187°
2026-05-06 09:13 51.06922 -3.37854 20300 ft 421 kts 187°
2026-05-06 09:13 51.04078 -3.38337 20739 ft 422 kts 187°
2026-05-06 09:14 51.01151 -3.38847 21177 ft 424 kts 188°
2026-05-06 09:14 50.98208 -3.39370 21594 ft 426 kts 188°
2026-05-06 09:14 50.95254 -3.39896 22008 ft 429 kts 188°
2026-05-06 09:14 50.92284 -3.40426 22412 ft 431 kts 188°
2026-05-06 09:15 50.89299 -3.40953 22801 ft 433 kts 188°
2026-05-06 09:15 50.86300 -3.41471 23187 ft 435 kts 188°
2026-05-06 09:15 50.83289 -3.41985 23565 ft 436 kts 188°
2026-05-06 09:15 50.80259 -3.42499 23871 ft 439 kts 187°
2026-05-06 09:16 50.77214 -3.43015 24174 ft 441 kts 188°
2026-05-06 09:16 50.74152 -3.43536 24476 ft 444 kts 188°
2026-05-06 09:16 50.71076 -3.44059 24775 ft 446 kts 188°
2026-05-06 09:16 50.67985 -3.44590 25069 ft 448 kts 188°
2026-05-06 09:17 50.64881 -3.45127 25350 ft 450 kts 188°
2026-05-06 09:17 50.61761 -3.45666 25612 ft 452 kts 187°
2026-05-06 09:17 50.58628 -3.46203 25877 ft 454 kts 188°
2026-05-06 09:17 50.55480 -3.46740 26121 ft 456 kts 187°
2026-05-06 09:18 50.52317 -3.47275 26372 ft 459 kts 188°
2026-05-06 09:18 50.49136 -3.47814 26627 ft 460 kts 187°
2026-05-06 09:18 50.45946 -3.48355 26885 ft 462 kts 188°
2026-05-06 09:18 50.42742 -3.48895 27125 ft 464 kts 187°
2026-05-06 09:19 50.39523 -3.49424 27378 ft 466 kts 187°
2026-05-06 09:19 50.36289 -3.49801 27726 ft 465 kts 184°
2026-05-06 09:19 50.33055 -3.50016 28063 ft 466 kts 183°
2026-05-06 09:19 50.29812 -3.50128 28382 ft 466 kts 182°
2026-05-06 09:20 50.26568 -3.50203 28733 ft 466 kts 182°
2026-05-06 09:20 50.23332 -3.50287 29103 ft 465 kts 182°
2026-05-06 09:20 50.20098 -3.50407 29450 ft 465 kts 183°
2026-05-06 09:20 50.16866 -3.50567 29760 ft 465 kts 183°
2026-05-06 09:21 50.13636 -3.50757 30111 ft 464 kts 183°
2026-05-06 09:21 50.10413 -3.50960 30423 ft 463 kts 184°
2026-05-06 09:21 50.07191 -3.51158 30683 ft 464 kts 183°
2026-05-06 09:21 50.03967 -3.51343 30966 ft 463 kts 183°
2026-05-06 09:22 50.00748 -3.51520 31286 ft 462 kts 183°
2026-05-06 09:22 49.97542 -3.51689 31611 ft 461 kts 183°
2026-05-06 09:22 49.94335 -3.51855 31882 ft 461 kts 184°
2026-05-06 09:22 49.91131 -3.52020 32176 ft 460 kts 183°
2026-05-06 09:23 49.87934 -3.52186 32507 ft 459 kts 183°
2026-05-06 09:23 49.84748 -3.52357 32826 ft 458 kts 183°
2026-05-06 09:23 49.81562 -3.52532 32978 ft 460 kts 183°
2026-05-06 09:24 49.75160 -3.52941 32994 ft 460 kts 187°
2026-05-06 09:24 49.68932 -3.55074 32996 ft 459 kts 197°
2026-05-06 09:25 49.62794 -3.57794 32990 ft 459 kts 197°
2026-05-06 09:25 49.56653 -3.60491 32997 ft 459 kts 197°
2026-05-06 09:26 49.50507 -3.63182 32991 ft 459 kts 197°
2026-05-06 09:26 49.44362 -3.65875 32988 ft 459 kts 197°
2026-05-06 09:27 49.38210 -3.68562 32994 ft 460 kts 197°
2026-05-06 09:27 49.32058 -3.71238 32995 ft 460 kts 197°
2026-05-06 09:28 49.25905 -3.73911 32995 ft 460 kts 197°
2026-05-06 09:28 49.19752 -3.76582 32990 ft 460 kts 197°
2026-05-06 09:29 49.13597 -3.79241 32994 ft 460 kts 197°
2026-05-06 09:29 49.07442 -3.81890 32995 ft 460 kts 197°
2026-05-06 09:30 49.01287 -3.84543 32984 ft 460 kts 197°
2026-05-06 09:30 48.95130 -3.87185 32983 ft 460 kts 197°
2026-05-06 09:31 48.88965 -3.89822 32982 ft 460 kts 197°
2026-05-06 09:31 48.82799 -3.92464 32975 ft 460 kts 197°
2026-05-06 09:32 48.76633 -3.95088 32971 ft 460 kts 197°
2026-05-06 09:32 48.70469 -3.97702 32973 ft 460 kts 197°
2026-05-06 09:33 48.64309 -4.00309 32973 ft 460 kts 197°
2026-05-06 09:33 48.58154 -4.02902 32972 ft 459 kts 197°
2026-05-06 09:34 48.51994 -4.05494 32957 ft 460 kts 197°
2026-05-06 09:34 48.45832 -4.08087 32971 ft 460 kts 197°
2026-05-06 09:35 48.39664 -4.10675 32972 ft 460 kts 197°
2026-05-06 09:35 48.33492 -4.13258 32972 ft 461 kts 196°
2026-05-06 09:36 48.27310 -4.15839 32975 ft 461 kts 196°
2026-05-06 09:36 48.21118 -4.18418 32977 ft 462 kts 196°
2026-05-06 09:37 48.14913 -4.20988 32959 ft 463 kts 196°
2026-05-06 09:37 48.08701 -4.23556 32954 ft 464 kts 196°
2026-05-06 09:38 48.02477 -4.26123 32955 ft 464 kts 196°
2026-05-06 09:38 47.96257 -4.28691 32962 ft 464 kts 196°
2026-05-06 09:39 47.90038 -4.31247 32954 ft 464 kts 196°
2026-05-06 09:39 47.83811 -4.33803 32956 ft 465 kts 196°
2026-05-06 09:40 47.77574 -4.36357 32969 ft 465 kts 196°
2026-05-06 09:40 47.68206 -4.40175 32973 ft 466 kts 196°
2026-05-06 09:41 47.61950 -4.42713 32977 ft 466 kts 196°
2026-05-06 09:41 47.55686 -4.45247 32977 ft 467 kts 196°
2026-05-06 09:42 47.49464 -4.47758 32977 ft 467 kts 196°
2026-05-06 09:42 47.43191 -4.50285 32985 ft 468 kts 196°
2026-05-06 09:43 47.36908 -4.52811 32989 ft 468 kts 196°
2026-05-06 09:43 47.30623 -4.55342 32993 ft 468 kts 196°
2026-05-06 09:44 47.24334 -4.57860 32994 ft 469 kts 196°
2026-05-06 09:44 47.18039 -4.60374 32998 ft 469 kts 196°
2026-05-06 09:45 47.11743 -4.62889 33011 ft 469 kts 196°
2026-05-06 09:45 47.05439 -4.65373 33014 ft 469 kts 195°
2026-05-06 09:46 46.99129 -4.67791 33009 ft 469 kts 195°
2026-05-06 09:46 46.92816 -4.70187 33008 ft 469 kts 195°
2026-05-06 09:47 46.86507 -4.72595 33010 ft 469 kts 195°
2026-05-06 09:47 46.80198 -4.75009 33016 ft 469 kts 195°
2026-05-06 09:48 46.73883 -4.77431 33020 ft 469 kts 195°
2026-05-06 09:48 46.68635 -4.79427 33024 ft 469 kts 195°
2026-05-06 09:49 46.62314 -4.81807 33019 ft 469 kts 195°
2026-05-06 09:49 46.55998 -4.84195 33021 ft 469 kts 195°
2026-05-06 09:50 46.49682 -4.86587 33018 ft 469 kts 195°
2026-05-06 09:50 46.43363 -4.88966 33015 ft 469 kts 195°
2026-05-06 09:51 46.37040 -4.91332 33026 ft 470 kts 195°
2026-05-06 09:51 46.30710 -4.93711 33372 ft 470 kts 195°
2026-05-06 09:52 46.27547 -4.94899 33645 ft 470 kts 195°
2026-05-06 09:52 46.24380 -4.96085 33922 ft 470 kts 195°
2026-05-06 09:52 46.21222 -4.97265 34211 ft 469 kts 195°
2026-05-06 09:52 46.18063 -4.98443 34410 ft 469 kts 195°
2026-05-06 09:53 46.14900 -4.99615 34645 ft 469 kts 195°
2026-05-06 09:53 46.11745 -5.00785 34905 ft 468 kts 195°
2026-05-06 09:53 46.08587 -5.01961 35017 ft 469 kts 195°
2026-05-06 09:53 46.05431 -5.03135 35039 ft 468 kts 195°
2026-05-06 09:54 45.99127 -5.05468 35034 ft 468 kts 195°
2026-05-06 09:54 45.92831 -5.07804 35041 ft 467 kts 195°
2026-05-06 09:55 45.86525 -5.10131 35038 ft 467 kts 195°
2026-05-06 09:55 45.80231 -5.12440 35032 ft 467 kts 195°
2026-05-06 09:56 45.73935 -5.14757 35040 ft 467 kts 195°
2026-05-06 09:56 45.67642 -5.17061 35045 ft 467 kts 195°
2026-05-06 09:57 45.61349 -5.19357 35047 ft 467 kts 195°
2026-05-06 09:57 45.55062 -5.21648 35047 ft 466 kts 195°
2026-05-06 09:58 45.48774 -5.23928 35047 ft 466 kts 195°
2026-05-06 09:58 45.42487 -5.26199 35042 ft 466 kts 195°
2026-05-06 09:59 45.36208 -5.28472 35050 ft 465 kts 195°
2026-05-06 09:59 45.29932 -5.30743 35049 ft 465 kts 195°
2026-05-06 10:00 45.23658 -5.33003 35049 ft 465 kts 195°
2026-05-06 10:00 45.17387 -5.35253 35049 ft 465 kts 195°
2026-05-06 10:01 45.11164 -5.37491 35056 ft 464 kts 195°
2026-05-06 10:01 45.04861 -5.39741 35040 ft 464 kts 195°
2026-05-06 10:02 44.98649 -5.41959 35043 ft 463 kts 195°
2026-05-06 10:02 44.92403 -5.44185 35039 ft 463 kts 195°
2026-05-06 10:03 44.86155 -5.46406 35040 ft 463 kts 195°
2026-05-06 10:03 44.79905 -5.48616 35043 ft 463 kts 195°
2026-05-06 10:04 44.73658 -5.50830 35049 ft 463 kts 195°
2026-05-06 10:04 44.67413 -5.53038 35046 ft 463 kts 195°
2026-05-06 10:05 44.61183 -5.55319 35047 ft 462 kts 200°
2026-05-06 10:05 44.55282 -5.58827 35043 ft 461 kts 205°
2026-05-06 10:06 44.49418 -5.62455 35045 ft 461 kts 205°
2026-05-06 10:06 44.43546 -5.66071 35047 ft 461 kts 205°
2026-05-06 10:07 44.37674 -5.69691 35054 ft 461 kts 205°
2026-05-06 10:07 44.31805 -5.73299 35044 ft 461 kts 205°
2026-05-06 10:08 44.25891 -5.76912 35043 ft 460 kts 205°
2026-05-06 10:08 44.20025 -5.80496 35054 ft 460 kts 205°
2026-05-06 10:09 44.14165 -5.84074 35058 ft 460 kts 205°
2026-05-06 10:09 44.08307 -5.87640 35057 ft 459 kts 205°
2026-05-06 10:10 44.02451 -5.91205 35056 ft 459 kts 206°
2026-05-06 10:10 43.96596 -5.94747 35056 ft 459 kts 205°
2026-05-06 10:11 43.90741 -5.98283 35056 ft 459 kts 205°
2026-05-06 10:11 43.84889 -6.01812 35041 ft 459 kts 206°
2026-05-06 10:12 43.79040 -6.05337 35050 ft 458 kts 206°
2026-05-06 10:12 43.73192 -6.08848 35040 ft 458 kts 206°
2026-05-06 10:13 43.67344 -6.12345 35041 ft 458 kts 206°
2026-05-06 10:13 43.61506 -6.15840 35039 ft 457 kts 206°
2026-05-06 10:14 43.55673 -6.19324 35049 ft 456 kts 206°
2026-05-06 10:14 43.49844 -6.22799 35049 ft 456 kts 206°
2026-05-06 10:15 43.44017 -6.26260 35042 ft 456 kts 206°
2026-05-06 10:15 43.38197 -6.29706 35048 ft 455 kts 206°
2026-05-06 10:16 43.32384 -6.33149 35044 ft 455 kts 206°
2026-05-06 10:16 43.26573 -6.36582 35041 ft 455 kts 206°
2026-05-06 10:17 43.20764 -6.40016 35031 ft 454 kts 206°
2026-05-06 10:17 43.14959 -6.43435 35036 ft 454 kts 206°
2026-05-06 10:18 43.09151 -6.46836 35029 ft 454 kts 206°
2026-05-06 10:18 43.03348 -6.50228 35024 ft 453 kts 206°
2026-05-06 10:19 42.97551 -6.53616 35032 ft 453 kts 206°
2026-05-06 10:19 42.91756 -6.56998 35035 ft 453 kts 206°
2026-05-06 10:20 42.85967 -6.60373 35036 ft 452 kts 206°
2026-05-06 10:20 42.80178 -6.63738 35028 ft 452 kts 206°
2026-05-06 10:21 42.74386 -6.67090 35029 ft 452 kts 206°
2026-05-06 10:21 42.68597 -6.70443 35040 ft 452 kts 206°
2026-05-06 10:22 42.62806 -6.73789 35035 ft 452 kts 206°
2026-05-06 10:22 42.57014 -6.77127 35033 ft 452 kts 206°
2026-05-06 10:23 42.51259 -6.80431 35038 ft 452 kts 206°
2026-05-06 10:23 42.45461 -6.83762 35036 ft 452 kts 206°
2026-05-06 10:24 42.39665 -6.87082 35025 ft 452 kts 206°
2026-05-06 10:24 42.33878 -6.90390 35040 ft 451 kts 206°
2026-05-06 10:25 42.28095 -6.93690 35039 ft 451 kts 206°
2026-05-06 10:25 42.22320 -6.96980 35033 ft 450 kts 206°
2026-05-06 10:26 42.16544 -7.00258 35035 ft 450 kts 206°
2026-05-06 10:26 42.10774 -7.03528 35037 ft 450 kts 206°
2026-05-06 10:27 42.05010 -7.06798 35037 ft 449 kts 206°
2026-05-06 10:27 41.99246 -7.10050 35038 ft 449 kts 205°
2026-05-06 10:28 41.93483 -7.13295 35026 ft 449 kts 206°
2026-05-06 10:28 41.87728 -7.16535 35038 ft 448 kts 206°
2026-05-06 10:29 41.81977 -7.19767 35037 ft 448 kts 206°
2026-05-06 10:29 41.76206 -7.22926 35037 ft 449 kts 201°
2026-05-06 10:30 41.71108 -7.24360 35023 ft 453 kts 190°
2026-05-06 10:30 41.64860 -7.25478 35030 ft 453 kts 191°
2026-05-06 10:31 41.58618 -7.26610 35037 ft 453 kts 191°
2026-05-06 10:31 41.52377 -7.27749 35031 ft 452 kts 191°
2026-05-06 10:32 41.46141 -7.28882 35039 ft 452 kts 191°
2026-05-06 10:32 41.39911 -7.30000 35043 ft 452 kts 191°
2026-05-06 10:33 41.33683 -7.31115 35047 ft 451 kts 191°
2026-05-06 10:33 41.27460 -7.32226 35038 ft 451 kts 191°
2026-05-06 10:34 41.21246 -7.33339 35046 ft 451 kts 191°
2026-05-06 10:34 41.15032 -7.34446 35040 ft 450 kts 191°
2026-05-06 10:35 41.08823 -7.35555 35033 ft 450 kts 191°
2026-05-06 10:35 41.02619 -7.36662 35034 ft 450 kts 191°
2026-05-06 10:36 40.96417 -7.37760 35039 ft 449 kts 191°
2026-05-06 10:36 40.90223 -7.38860 35036 ft 449 kts 191°
2026-05-06 10:37 40.84029 -7.39966 35034 ft 449 kts 191°
2026-05-06 10:37 40.77833 -7.41063 35036 ft 449 kts 191°
2026-05-06 10:38 40.71643 -7.42157 35032 ft 449 kts 191°
2026-05-06 10:38 40.65452 -7.43250 35020 ft 448 kts 191°
2026-05-06 10:39 40.59276 -7.44335 35032 ft 447 kts 191°
2026-05-06 10:39 40.53116 -7.45415 35042 ft 446 kts 191°
2026-05-06 10:40 40.46965 -7.46487 35035 ft 446 kts 191°
2026-05-06 10:40 40.40819 -7.47556 35033 ft 445 kts 191°
2026-05-06 10:41 40.34724 -7.48619 35032 ft 445 kts 191°
2026-05-06 10:41 40.28587 -7.49693 35031 ft 445 kts 191°
2026-05-06 10:42 40.22455 -7.50760 35014 ft 445 kts 191°
2026-05-06 10:42 40.16326 -7.51827 35023 ft 444 kts 191°
2026-05-06 10:43 40.10202 -7.52892 35024 ft 444 kts 191°
2026-05-06 10:44 40.01024 -7.54479 35023 ft 443 kts 191°
2026-05-06 10:44 39.94909 -7.55533 35020 ft 443 kts 191°
2026-05-06 10:45 39.88800 -7.56587 35021 ft 443 kts 191°
2026-05-06 10:45 39.82690 -7.57631 35022 ft 443 kts 191°
2026-05-06 10:46 39.76581 -7.58677 35009 ft 443 kts 191°
2026-05-06 10:46 39.70474 -7.59722 35025 ft 443 kts 191°
2026-05-06 10:47 39.64370 -7.60768 35025 ft 443 kts 191°
2026-05-06 10:47 39.58264 -7.61811 35024 ft 443 kts 191°
2026-05-06 10:48 39.52159 -7.62854 35011 ft 443 kts 191°
2026-05-06 10:48 39.46052 -7.63890 35016 ft 443 kts 191°
2026-05-06 10:49 39.39944 -7.64935 35019 ft 443 kts 191°
2026-05-06 10:49 39.33763 -7.65214 35021 ft 446 kts 183°
2026-05-06 10:50 39.27558 -7.65208 35015 ft 446 kts 184°
2026-05-06 10:50 39.21352 -7.65210 35015 ft 446 kts 184°
2026-05-06 10:51 39.15146 -7.65202 35018 ft 446 kts 183°
2026-05-06 10:51 39.08939 -7.65202 34999 ft 446 kts 184°
2026-05-06 10:52 39.02738 -7.65192 35008 ft 446 kts 183°
2026-05-06 10:52 38.96533 -7.64992 35014 ft 446 kts 181°
2026-05-06 10:53 38.90327 -7.64677 35017 ft 446 kts 181°
2026-05-06 10:53 38.84123 -7.64377 35006 ft 446 kts 182°
2026-05-06 10:54 38.77921 -7.64132 35010 ft 446 kts 182°
2026-05-06 10:54 38.71721 -7.63909 35010 ft 446 kts 182°
2026-05-06 10:55 38.65522 -7.63672 35011 ft 446 kts 182°
2026-05-06 10:55 38.59326 -7.63425 34999 ft 445 kts 182°
2026-05-06 10:56 38.53132 -7.63173 35009 ft 445 kts 182°
2026-05-06 10:56 38.46942 -7.62931 35010 ft 445 kts 182°
2026-05-06 10:57 38.40755 -7.62688 35005 ft 445 kts 182°
2026-05-06 10:57 38.34584 -7.62451 34422 ft 442 kts 182°
2026-05-06 10:57 38.31518 -7.62333 34039 ft 441 kts 182°
2026-05-06 10:58 38.28448 -7.62212 33776 ft 442 kts 182°
2026-05-06 10:58 38.25370 -7.62090 33502 ft 443 kts 182°
2026-05-06 10:58 38.22288 -7.61968 33028 ft 444 kts 182°
2026-05-06 10:58 38.19181 -7.61849 32023 ft 449 kts 182°
2026-05-06 10:59 38.16049 -7.61730 31052 ft 452 kts 182°
2026-05-06 10:59 38.12895 -7.61610 30099 ft 455 kts 182°
2026-05-06 10:59 38.09717 -7.61492 28914 ft 459 kts 181°
2026-05-06 10:59 38.06513 -7.61396 27765 ft 462 kts 182°
2026-05-06 11:00 38.03296 -7.61364 26593 ft 464 kts 183°
2026-05-06 11:00 38.00052 -7.61377 25360 ft 468 kts 183°
2026-05-06 11:00 37.96781 -7.61410 24152 ft 472 kts 183°
2026-05-06 11:00 37.93489 -7.61443 23015 ft 473 kts 183°
2026-05-06 11:01 37.90240 -7.61462 22315 ft 460 kts 183°
2026-05-06 11:01 37.87083 -7.61468 21080 ft 447 kts 182°
2026-05-06 11:01 37.84045 -7.61464 20354 ft 426 kts 182°
2026-05-06 11:01 37.81138 -7.61456 19580 ft 410 kts 182°
2026-05-06 11:02 37.78294 -7.61453 18841 ft 410 kts 182°
2026-05-06 11:02 37.75436 -7.61458 18067 ft 411 kts 182°
2026-05-06 11:02 37.72580 -7.61464 17305 ft 410 kts 182°
2026-05-06 11:02 37.69739 -7.61468 16600 ft 407 kts 182°
2026-05-06 11:03 37.66912 -7.61467 15923 ft 405 kts 182°
2026-05-06 11:03 37.64102 -7.61465 15249 ft 403 kts 182°
2026-05-06 11:03 37.61306 -7.61463 14597 ft 400 kts 181°
2026-05-06 11:03 37.58528 -7.61463 13954 ft 398 kts 182°
2026-05-06 11:04 37.55769 -7.61466 13299 ft 395 kts 182°
2026-05-06 11:04 37.53036 -7.61468 12693 ft 390 kts 182°
2026-05-06 11:04 37.50338 -7.61468 12089 ft 386 kts 182°
2026-05-06 11:04 37.47667 -7.61467 11494 ft 382 kts 181°
2026-05-06 11:05 37.45043 -7.61470 11177 ft 370 kts 181°
2026-05-06 11:05 37.42528 -7.61470 11051 ft 353 kts 182°
2026-05-06 11:05 37.40126 -7.61469 10933 ft 338 kts 181°
2026-05-06 11:05 37.37822 -7.61468 10803 ft 325 kts 182°
2026-05-06 11:06 37.35603 -7.61467 10681 ft 313 kts 181°
2026-05-06 11:06 37.33462 -7.61469 10558 ft 303 kts 181°
2026-05-06 11:06 37.31386 -7.61473 10375 ft 295 kts 182°
2026-05-06 11:06 37.29354 -7.61475 10270 ft 291 kts 182°
2026-05-06 11:07 37.27335 -7.61475 10188 ft 290 kts 182°
2026-05-06 11:07 37.25323 -7.61476 10060 ft 288 kts 182°
2026-05-06 11:07 37.23347 -7.61476 9802 ft 283 kts 183°
2026-05-06 11:07 37.21335 -7.61478 9089 ft 294 kts 181°
2026-05-06 11:08 37.19270 -7.61480 8488 ft 300 kts 181°
2026-05-06 11:08 37.17164 -7.61484 7873 ft 305 kts 182°
2026-05-06 11:08 37.15017 -7.61488 7253 ft 311 kts 181°
2026-05-06 11:08 37.12830 -7.61491 6622 ft 317 kts 182°
2026-05-06 11:09 37.10605 -7.61495 5948 ft 322 kts 181°
2026-05-06 11:09 37.08366 -7.61669 5291 ft 323 kts 192°
2026-05-06 11:09 37.06267 -7.62596 4951 ft 314 kts 205°
2026-05-06 11:09 37.04327 -7.63685 4885 ft 297 kts 204°
2026-05-06 11:10 37.02485 -7.64699 4820 ft 281 kts 204°
2026-05-06 11:10 37.00736 -7.65656 4720 ft 267 kts 204°
2026-05-06 11:10 36.99084 -7.66595 4607 ft 254 kts 211°
2026-05-06 11:10 36.97900 -7.68101 4435 ft 240 kts 246°
2026-05-06 11:11 36.97635 -7.70091 4115 ft 232 kts 278°
2026-05-06 11:11 36.97904 -7.72060 3813 ft 228 kts 283°
2026-05-06 11:11 36.98202 -7.74001 3509 ft 226 kts 283°
2026-05-06 11:11 36.98486 -7.75936 3209 ft 226 kts 282°
2026-05-06 11:12 36.98671 -7.77216 3006 ft 226 kts 282°
2026-05-06 11:12 36.98948 -7.79146 2702 ft 225 kts 282°
2026-05-06 11:12 36.99224 -7.81067 2398 ft 224 kts 283°
2026-05-06 11:12 36.99494 -7.82954 2100 ft 217 kts 283°
2026-05-06 11:13 36.99753 -7.84762 1825 ft 203 kts 282°
2026-05-06 11:13 36.99989 -7.86417 1567 ft 184 kts 283°
2026-05-06 11:13 37.00207 -7.87941 1317 ft 171 kts 282°
2026-05-06 11:13 37.00409 -7.89344 1095 ft 159 kts 280°
2026-05-06 11:14 37.00598 -7.90667 891 ft 150 kts 278°
2026-05-06 11:14 37.00776 -7.91912 697 ft 142 kts 276°
2026-05-06 11:14 37.00948 -7.93113 525 ft 138 kts 277°
2026-05-06 11:14 37.01112 -7.94264 354 ft 131 kts 281°
2026-05-06 11:15 37.01273 -7.95396 154 ft 133 kts 280°
2026-05-06 11:15 37.01433 -7.96524 23 ft 125 kts 280°
2026-05-06 11:15 37.01559 -7.97380 19 ft 63 kts 282°
2026-05-06 11:15 37.01612 -7.97757 18 ft 37 kts 283°
2026-05-06 11:16 37.01655 -7.98016 22 ft 25 kts 286°
2026-05-06 11:16 37.01750 -7.98186 21 ft 14 kts 316°
2026-05-06 11:16 37.01756 -7.98193 21 ft 0 kts 316°
2026-05-06 11:18 37.01776 -7.98215 21 ft 9 kts 322°
2026-05-06 11:18 37.01834 -7.98217 22 ft 8 kts 27°
2026-05-06 11:18 37.01848 -7.98155 20 ft 7 kts 95°
2026-05-06 11:18 37.01842 -7.98098 23 ft 6 kts 97°
2026-05-06 11:19 37.01836 -7.98045 20 ft 6 kts 100°
2026-05-06 11:19 37.01822 -7.97949 20 ft 20 kts 101°
2026-05-06 11:19 37.01794 -7.97758 20 ft 22 kts 100°
2026-05-06 11:19 37.01768 -7.97578 20 ft 20 kts 100°
2026-05-06 11:20 37.01771 -7.97444 20 ft 13 kts 58°
2026-05-06 11:20 37.01832 -7.97375 20 ft 11 kts 40°
2026-05-06 11:20 37.01843 -7.97290 23 ft 10 kts 97°
2026-05-06 11:20 37.01834 -7.97211 20 ft 9 kts 100°
2026-05-06 11:21 37.01824 -7.97141 20 ft 8 kts 100°
2026-05-06 11:21 37.01816 -7.97080 20 ft 8 kts 100°
2026-05-06 11:21 37.01799 -7.96964 20 ft 15 kts 99°
2026-05-06 11:21 37.01793 -7.96908 20 ft 2 kts 83°
2026-05-06 11:22 37.01817 -7.96868 20 ft 7 kts 46°
2026-05-06 11:22 37.01860 -7.96851 20 ft 6 kts 12°
2026-05-06 11:22 37.01898 -7.96842 20 ft 5 kts 10°
2026-05-06 11:22 37.01914 -7.96838 20 ft 0 kts 11°
2026-05-06 11:23 37.01915 -7.96838 20 ft 0 kts 11°